Time,TemperatureF,DewpointF,PressureIn,WindDirection,WindDirectionDegrees,WindSpeedMPH,WindSpeedGustMPH,Humidity,HourlyPrecipIn,Conditions,Clouds,dailyrainin,SoftwareType,DateUTC
2013-01-31 00:00:00,40.1,35.6,29.77,NW,322,7.4,15.8,79,0.00,,,2.55,WUHU216WMR968SP,2013-01-31 05:00:00,
2013-01-31 00:01:00,40.3,33.8,29.77,WNW,298,9.5,15.8,78,0.00,,,0.00,WUHU216WMR968SP,2013-01-31 05:01:00,
2013-01-31 00:06:00,40.3,33.8,29.79,West,281,8.7,15.8,77,0.00,,,0.00,WUHU216WMR968SP,2013-01-31 05:06:00,
2013-01-31 00:11:00,39.9,32.0,29.79,North,353,8.1,16.5,77,0.00,,,0.00,WUHU216WMR968SP,2013-01-31 05:11:00,
2013-01-31 00:16:00,39.2,32.0,29.79,WNW,294,8.1,16.5,77,0.00,,,0.00,WUHU216WMR968SP,2013-01-31 05:16:00,
2013-01-31 00:21:00,39.0,32.0,29.82,NW,311,8.1,16.5,78,0.00,,,0.00,WUHU216WMR968SP,2013-01-31 05:21:00,
2013-01-31 00:26:00,39.0,32.0,29.82,West,279,8.1,16.5,78,0.00,,,0.00,WUHU216WMR968SP,2013-01-31 05:26:00,
2013-01-31 00:31:00,39.0,32.0,29.82,WNW,291,4.1,16.5,78,0.00,,,0.00,WUHU216WMR968SP,2013-01-31 05:31:00,
2013-01-31 00:36:00,38.8,32.0,29.82,NW,319,3.3,16.5,77,0.00,,,0.00,WUHU216WMR968SP,2013-01-31 05:36:00,
2013-01-31 00:41:00,38.8,32.0,29.82,WNW,303,4.6,12.5,77,0.00,,,0.00,WUHU216WMR968SP,2013-01-31 05:41:00,
2013-01-31 00:46:00,38.8,32.0,29.82,NW,318,5.4,12.5,77,0.00,,,0.00,WUHU216WMR968SP,2013-01-31 05:46:00,
2013-01-31 00:51:00,38.7,32.0,29.85,WNW,300,6.8,10.0,77,0.00,,,0.00,WUHU216WMR968SP,2013-01-31 05:51:00,
2013-01-31 00:56:00,38.7,32.0,29.85,NW,319,3.3,10.0,77,0.00,,,0.00,WUHU216WMR968SP,2013-01-31 05:56:00,
2013-01-31 01:01:00,38.5,32.0,29.85,WNW,282,6.0,8.7,76,0.00,,,0.00,WUHU216WMR968SP,2013-01-31 06:01:00,
2013-01-31 01:06:00,38.5,32.0,29.85,WNW,284,6.8,9.5,76,0.00,,,0.00,WUHU216WMR968SP,2013-01-31 06:06:00,
2013-01-31 01:11:00,38.3,32.0,29.85,West,263,8.7,13.0,75,0.00,,,0.00,WUHU216WMR968SP,2013-01-31 06:11:00,
2013-01-31 01:16:00,38.1,30.6,29.85,WNW,294,9.5,13.0,74,0.00,,,0.00,WUHU216WMR968SP,2013-01-31 06:16:00,
2013-01-31 01:21:00,37.9,30.4,29.85,WNW,290,7.4,12.2,74,0.00,,,0.00,WUHU216WMR968SP,2013-01-31 06:21:00,
2013-01-31 01:26:00,37.9,30.4,29.85,NNW,334,8.7,11.4,74,0.00,,,0.00,WUHU216WMR968SP,2013-01-31 06:26:00,
2013-01-31 01:31:00,37.8,30.3,29.85,West,281,4.1,13.0,74,0.00,,,0.00,WUHU216WMR968SP,2013-01-31 06:31:00,
2013-01-31 01:36:00,37.6,30.1,29.88,NW,315,6.0,13.0,74,0.00,,,0.00,WUHU216WMR968SP,2013-01-31 06:36:00,
2013-01-31 01:41:00,37.6,30.1,29.88,WNW,303,6.0,9.5,74,0.00,,,0.00,WUHU216WMR968SP,2013-01-31 06:41:00,
2013-01-31 01:46:00,37.6,30.1,29.88,West,277,8.1,9.5,74,0.00,,,0.00,WUHU216WMR968SP,2013-01-31 06:46:00,
2013-01-31 01:51:00,37.2,29.7,29.88,NNW,334,7.4,12.2,74,0.00,,,0.00,WUHU216WMR968SP,2013-01-31 06:51:00,
2013-01-31 01:56:00,37.0,29.5,29.88,NW,316,4.6,12.2,74,0.00,,,0.00,WUHU216WMR968SP,2013-01-31 06:56:00,
2013-01-31 02:01:00,36.9,29.4,29.88,NW,310,6.8,11.4,74,0.00,,,0.00,WUHU216WMR968SP,2013-01-31 07:01:00,
2013-01-31 02:06:00,36.7,29.2,29.88,West,262,5.4,12.2,74,0.00,,,0.00,WUHU216WMR968SP,2013-01-31 07:06:00,
2013-01-31 02:11:00,36.7,29.2,29.88,NNW,342,4.1,12.2,74,0.00,,,0.00,WUHU216WMR968SP,2013-01-31 07:11:00,
2013-01-31 02:16:00,36.5,29.1,29.88,NNW,345,8.1,12.5,74,0.00,,,0.00,WUHU216WMR968SP,2013-01-31 07:16:00,
2013-01-31 02:21:00,36.5,28.7,29.91,NW,314,6.0,12.5,73,0.00,,,0.00,WUHU216WMR968SP,2013-01-31 07:21:00,
2013-01-31 02:26:00,36.5,28.4,29.91,WNW,296,8.7,16.5,72,0.00,,,0.00,WUHU216WMR968SP,2013-01-31 07:26:00,
2013-01-31 02:31:00,36.5,28.1,29.91,NW,317,8.1,16.5,71,0.00,,,0.00,WUHU216WMR968SP,2013-01-31 07:31:00,
2013-01-31 02:36:00,36.3,27.9,29.91,NNE,19,5.4,12.5,71,0.00,,,0.00,WUHU216WMR968SP,2013-01-31 07:36:00,
2013-01-31 02:41:00,36.3,27.9,29.91,NW,320,5.4,12.5,71,0.00,,,0.00,WUHU216WMR968SP,2013-01-31 07:41:00,
2013-01-31 02:46:00,36.3,27.9,29.91,NW,319,5.4,12.5,71,0.00,,,0.00,WUHU216WMR968SP,2013-01-31 07:46:00,
2013-01-31 02:51:00,36.3,28.2,29.91,West,277,7.4,9.5,72,0.00,,,0.00,WUHU216WMR968SP,2013-01-31 07:51:00,
2013-01-31 02:56:00,36.1,28.0,29.91,NW,313,5.4,9.5,72,0.00,,,0.00,WUHU216WMR968SP,2013-01-31 07:56:00,
2013-01-31 03:01:00,36.1,28.0,29.91,NW,322,6.0,10.0,72,0.00,,,0.00,WUHU216WMR968SP,2013-01-31 08:01:00,
2013-01-31 03:06:00,36.1,28.0,29.91,WSW,247,8.7,12.5,72,0.00,,,0.00,WUHU216WMR968SP,2013-01-31 08:06:00,
2013-01-31 03:11:00,36.1,28.0,29.91,WNW,284,5.4,12.5,72,0.00,,,0.00,WUHU216WMR968SP,2013-01-31 08:11:00,
2013-01-31 03:16:00,36.1,28.0,29.91,WNW,282,4.1,11.4,72,0.00,,,0.00,WUHU216WMR968SP,2013-01-31 08:16:00,
2013-01-31 03:21:00,36.1,28.0,29.94,WNW,290,6.0,11.4,72,0.00,,,0.00,WUHU216WMR968SP,2013-01-31 08:21:00,
2013-01-31 03:26:00,36.1,27.7,29.94,NW,304,5.4,8.7,71,0.00,,,0.00,WUHU216WMR968SP,2013-01-31 08:26:00,
2013-01-31 03:31:00,36.1,27.3,29.94,WNW,301,9.5,12.2,70,0.00,,,0.00,WUHU216WMR968SP,2013-01-31 08:31:00,
2013-01-31 03:36:00,36.1,27.3,29.94,WNW,286,6.0,12.2,70,0.00,,,0.00,WUHU216WMR968SP,2013-01-31 08:36:00,
2013-01-31 03:41:00,36.1,27.0,29.94,NW,311,8.1,14.4,69,0.00,,,0.00,WUHU216WMR968SP,2013-01-31 08:41:00,
2013-01-31 03:46:00,36.0,26.9,29.94,NW,304,7.4,14.4,69,0.00,,,0.00,WUHU216WMR968SP,2013-01-31 08:46:00,
2013-01-31 03:51:00,35.8,26.3,29.94,North,353,5.4,11.4,68,0.00,,,0.00,WUHU216WMR968SP,2013-01-31 08:51:00,
2013-01-31 03:56:00,35.8,26.3,29.94,NW,311,4.6,11.4,68,0.00,,,0.00,WUHU216WMR968SP,2013-01-31 08:56:00,
2013-01-31 04:01:00,35.8,26.3,29.94,NNW,327,6.8,9.5,68,0.00,,,0.00,WUHU216WMR968SP,2013-01-31 09:01:00,
2013-01-31 04:06:00,35.6,26.5,29.94,NNW,345,3.3,9.5,69,0.00,,,0.00,WUHU216WMR968SP,2013-01-31 09:06:00,
2013-01-31 04:11:00,35.6,26.2,29.94,NW,312,5.4,9.5,68,0.00,,,0.00,WUHU216WMR968SP,2013-01-31 09:11:00,
2013-01-31 04:16:00,35.6,26.5,29.94,NW,311,0.0,9.5,69,0.00,,,0.00,WUHU216WMR968SP,2013-01-31 09:16:00,
2013-01-31 04:21:00,35.4,26.3,29.94,West,281,3.3,6.0,69,0.00,,,0.00,WUHU216WMR968SP,2013-01-31 09:21:00,
2013-01-31 04:26:00,35.4,26.3,29.94,WNW,299,4.1,6.0,69,0.00,,,0.00,WUHU216WMR968SP,2013-01-31 09:26:00,
2013-01-31 04:31:00,35.4,26.7,29.94,NW,316,0.0,9.5,70,0.00,,,0.00,WUHU216WMR968SP,2013-01-31 09:31:00,
2013-01-31 04:36:00,35.4,26.7,29.94,WNW,300,4.1,9.5,70,0.00,,,0.00,WUHU216WMR968SP,2013-01-31 09:36:00,
2013-01-31 04:41:00,35.6,26.5,29.94,NNW,333,5.4,8.7,69,0.00,,,0.00,WUHU216WMR968SP,2013-01-31 09:41:00,
2013-01-31 04:46:00,35.6,26.5,29.94,NNW,333,0.0,8.7,69,0.00,,,0.00,WUHU216WMR968SP,2013-01-31 09:46:00,
2013-01-31 04:51:00,35.6,26.8,29.94,West,280,4.6,8.7,70,0.00,,,0.00,WUHU216WMR968SP,2013-01-31 09:51:00,
2013-01-31 04:56:00,35.6,26.5,29.94,NNW,342,5.4,8.7,69,0.00,,,0.00,WUHU216WMR968SP,2013-01-31 09:56:00,
2013-01-31 05:01:00,35.6,26.5,29.94,North,353,4.6,9.5,69,0.00,,,0.00,WUHU216WMR968SP,2013-01-31 10:01:00,
2013-01-31 05:06:00,35.4,26.3,29.94,NW,322,3.3,9.5,69,0.00,,,0.00,WUHU216WMR968SP,2013-01-31 10:06:00,
2013-01-31 05:11:00,35.4,26.3,29.94,NW,307,4.6,8.1,69,0.00,,,0.00,WUHU216WMR968SP,2013-01-31 10:11:00,
2013-01-31 05:16:00,35.4,26.7,29.94,NW,305,3.3,10.8,70,0.00,,,0.00,WUHU216WMR968SP,2013-01-31 10:16:00,
2013-01-31 05:21:00,35.4,26.7,29.94,NW,309,4.1,10.8,70,0.00,,,0.00,WUHU216WMR968SP,2013-01-31 10:21:00,
2013-01-31 05:26:00,35.4,26.7,29.94,WNW,299,0.0,7.4,70,0.00,,,0.00,WUHU216WMR968SP,2013-01-31 10:26:00,
2013-01-31 05:31:00,35.4,26.7,29.94,WSW,251,3.3,8.1,70,0.00,,,0.00,WUHU216WMR968SP,2013-01-31 10:31:00,
2013-01-31 05:36:00,35.4,26.7,29.94,WSW,249,0.0,8.1,70,0.00,,,0.00,WUHU216WMR968SP,2013-01-31 10:36:00,
2013-01-31 05:41:00,35.6,26.8,29.94,WSW,241,0.0,8.1,70,0.00,,,0.00,WUHU216WMR968SP,2013-01-31 10:41:00,
2013-01-31 05:46:00,35.6,26.8,29.94,WNW,291,4.6,8.7,70,0.00,,,0.00,WUHU216WMR968SP,2013-01-31 10:46:00,
2013-01-31 05:51:00,35.6,27.2,29.97,West,279,4.1,8.7,71,0.00,,,0.00,WUHU216WMR968SP,2013-01-31 10:51:00,
2013-01-31 05:56:00,35.6,27.2,29.97,WSW,250,4.6,7.4,71,0.00,,,0.00,WUHU216WMR968SP,2013-01-31 10:56:00,
2013-01-31 06:01:00,35.6,27.2,29.97,WSW,252,6.8,11.4,71,0.00,,,0.00,WUHU216WMR968SP,2013-01-31 11:01:00,
2013-01-31 06:06:00,35.8,27.0,29.94,NNW,339,6.8,11.4,70,0.00,,,0.00,WUHU216WMR968SP,2013-01-31 11:06:00,
2013-01-31 06:11:00,35.6,26.8,29.94,WNW,283,4.6,8.7,70,0.00,,,0.00,WUHU216WMR968SP,2013-01-31 11:11:00,
2013-01-31 06:16:00,35.6,26.8,29.94,WSW,247,6.0,9.5,70,0.00,,,0.00,WUHU216WMR968SP,2013-01-31 11:16:00,
2013-01-31 06:21:00,35.6,26.8,29.97,SW,233,6.0,9.5,70,0.00,,,0.00,WUHU216WMR968SP,2013-01-31 11:21:00,
2013-01-31 06:26:00,35.6,26.5,29.97,NW,304,6.0,8.7,69,0.00,,,0.00,WUHU216WMR968SP,2013-01-31 11:26:00,
2013-01-31 06:31:00,35.6,26.5,29.97,WSW,256,5.4,9.5,69,0.00,,,0.00,WUHU216WMR968SP,2013-01-31 11:31:00,
2013-01-31 06:36:00,35.6,26.8,29.97,West,276,4.6,9.5,70,0.00,,,0.00,WUHU216WMR968SP,2013-01-31 11:36:00,
2013-01-31 06:41:00,35.6,26.5,29.97,WSW,246,6.0,8.1,69,0.00,,,0.00,WUHU216WMR968SP,2013-01-31 11:41:00,
2013-01-31 06:46:00,35.4,26.3,29.97,West,267,5.4,9.5,69,0.00,,,0.00,WUHU216WMR968SP,2013-01-31 11:46:00,
2013-01-31 06:51:00,35.4,26.0,29.97,West,275,6.0,9.5,68,0.00,,,0.00,WUHU216WMR968SP,2013-01-31 11:51:00,
2013-01-31 06:56:00,35.4,25.6,29.97,NW,317,6.0,11.4,67,0.00,,,0.00,WUHU216WMR968SP,2013-01-31 11:56:00,
2013-01-31 07:01:00,35.4,25.6,29.97,WSW,246,6.8,11.4,67,0.00,,,0.00,WUHU216WMR968SP,2013-01-31 12:01:00,
2013-01-31 07:06:00,35.2,25.4,29.97,NW,304,7.4,12.5,67,0.00,,,0.00,WUHU216WMR968SP,2013-01-31 12:06:00,
2013-01-31 07:11:00,35.1,25.0,29.97,WSW,253,5.4,12.5,66,0.00,,,0.00,WUHU216WMR968SP,2013-01-31 12:11:00,
2013-01-31 07:16:00,35.1,25.0,29.97,West,273,8.1,12.2,66,0.00,,,0.00,WUHU216WMR968SP,2013-01-31 12:16:00,
2013-01-31 07:21:00,34.9,24.4,30.00,NW,308,6.0,12.2,65,0.00,,,0.00,WUHU216WMR968SP,2013-01-31 12:21:00,
2013-01-31 07:26:00,34.7,23.8,30.00,North,353,4.1,11.4,64,0.00,,,0.00,WUHU216WMR968SP,2013-01-31 12:26:00,
2013-01-31 07:31:00,34.5,23.6,30.00,NW,308,5.4,11.4,64,0.00,,,0.00,WUHU216WMR968SP,2013-01-31 12:31:00,
2013-01-31 07:36:00,34.7,23.8,30.00,WNW,292,4.1,8.1,64,0.00,,,0.00,WUHU216WMR968SP,2013-01-31 12:36:00,
2013-01-31 07:41:00,34.5,23.6,30.00,NW,313,6.0,9.5,64,0.00,,,0.00,WUHU216WMR968SP,2013-01-31 12:41:00,
2013-01-31 07:46:00,34.5,23.6,30.00,NW,305,5.4,12.2,64,0.00,,,0.00,WUHU216WMR968SP,2013-01-31 12:46:00,
2013-01-31 07:51:00,34.5,23.6,30.00,WNW,286,3.3,12.2,64,0.00,,,0.00,WUHU216WMR968SP,2013-01-31 12:51:00,
2013-01-31 07:56:00,34.5,23.6,30.00,NW,305,3.3,8.7,64,0.00,,,0.00,WUHU216WMR968SP,2013-01-31 12:56:00,
2013-01-31 08:01:00,34.5,23.6,30.00,WNW,289,4.1,8.7,64,0.00,,,0.00,WUHU216WMR968SP,2013-01-31 13:01:00,
2013-01-31 08:06:00,34.7,23.8,30.00,WNW,298,4.1,8.1,64,0.00,,,0.00,WUHU216WMR968SP,2013-01-31 13:06:00,
2013-01-31 08:11:00,34.9,24.0,30.00,WNW,287,5.4,8.7,64,0.00,,,0.00,WUHU216WMR968SP,2013-01-31 13:11:00,
2013-01-31 08:16:00,34.9,24.0,30.00,West,280,4.1,8.7,64,0.00,,,0.00,WUHU216WMR968SP,2013-01-31 13:16:00,
2013-01-31 08:21:00,35.1,24.2,30.03,West,273,0.0,8.7,64,0.00,,,0.00,WUHU216WMR968SP,2013-01-31 13:21:00,
2013-01-31 08:26:00,35.1,24.2,30.03,WNW,291,3.3,8.1,64,0.00,,,0.00,WUHU216WMR968SP,2013-01-31 13:26:00,
2013-01-31 08:31:00,35.1,24.2,30.03,WNW,300,0.0,8.1,64,0.00,,,0.00,WUHU216WMR968SP,2013-01-31 13:31:00,
2013-01-31 08:36:00,35.1,24.6,30.00,NW,309,0.0,7.4,65,0.00,,,0.00,WUHU216WMR968SP,2013-01-31 13:36:00,
2013-01-31 08:41:00,35.2,24.7,30.00,SSW,192,4.1,6.0,65,0.00,,,0.00,WUHU216WMR968SP,2013-01-31 13:41:00,
2013-01-31 08:46:00,35.4,24.9,30.00,SW,223,5.4,9.5,65,0.00,,,0.00,WUHU216WMR968SP,2013-01-31 13:46:00,
2013-01-31 08:51:00,35.4,24.5,30.03,SW,232,9.5,13.0,64,0.00,,,0.00,WUHU216WMR968SP,2013-01-31 13:51:00,
2013-01-31 08:56:00,35.4,24.1,30.03,SSW,194,4.6,13.0,63,0.00,,,0.00,WUHU216WMR968SP,2013-01-31 13:56:00,
2013-01-31 09:01:00,35.6,24.3,30.03,ENE,60,4.6,12.5,63,0.00,,,0.00,WUHU216WMR968SP,2013-01-31 14:01:00,
2013-01-31 09:06:00,35.8,24.5,30.06,South,183,7.4,11.4,63,0.00,,,0.00,WUHU216WMR968SP,2013-01-31 14:06:00,
2013-01-31 09:11:00,36.0,24.3,30.06,West,280,10.0,13.0,62,0.00,,,0.00,WUHU216WMR968SP,2013-01-31 14:11:00,
2013-01-31 09:16:00,35.8,23.7,30.06,WSW,253,6.8,13.0,61,0.00,,,0.00,WUHU216WMR968SP,2013-01-31 14:16:00,
2013-01-31 09:21:00,35.8,23.7,30.06,NW,324,0.0,10.0,61,0.00,,,0.00,WUHU216WMR968SP,2013-01-31 14:21:00,
2013-01-31 09:26:00,35.8,23.7,30.06,West,265,6.8,9.5,61,0.00,,,0.00,WUHU216WMR968SP,2013-01-31 14:26:00,
2013-01-31 09:31:00,36.0,23.9,30.06,SSW,211,4.1,11.4,61,0.00,,,0.00,WUHU216WMR968SP,2013-01-31 14:31:00,
2013-01-31 09:36:00,35.8,23.7,30.06,NW,307,5.4,11.4,61,0.00,,,0.00,WUHU216WMR968SP,2013-01-31 14:36:00,
2013-01-31 09:41:00,36.1,24.0,30.06,WNW,299,4.6,9.5,61,0.00,,,0.00,WUHU216WMR968SP,2013-01-31 14:41:00,
2013-01-31 09:46:00,36.7,24.6,30.06,West,274,3.3,9.5,61,0.00,,,0.00,WUHU216WMR968SP,2013-01-31 14:46:00,
2013-01-31 09:51:00,36.9,24.8,30.06,SW,229,6.0,9.5,61,0.00,,,0.00,WUHU216WMR968SP,2013-01-31 14:51:00,
2013-01-31 09:56:00,36.7,24.6,30.06,WSW,254,4.6,8.7,61,0.00,,,0.00,WUHU216WMR968SP,2013-01-31 14:56:00,
2013-01-31 10:01:00,36.9,25.2,30.06,WNW,283,5.4,8.7,62,0.00,,,0.00,WUHU216WMR968SP,2013-01-31 15:01:00,
2013-01-31 10:06:00,37.2,25.0,30.06,West,259,6.0,13.8,61,0.00,,,0.00,WUHU216WMR968SP,2013-01-31 15:06:00,
2013-01-31 10:11:00,37.6,25.0,30.06,WNW,286,5.4,13.8,60,0.00,,,0.00,WUHU216WMR968SP,2013-01-31 15:11:00,
2013-01-31 10:16:00,37.4,24.8,30.06,WNW,282,4.6,12.5,60,0.00,,,0.00,WUHU216WMR968SP,2013-01-31 15:16:00,
2013-01-31 10:21:00,37.4,24.8,30.06,WNW,299,6.0,9.5,60,0.00,,,0.00,WUHU216WMR968SP,2013-01-31 15:21:00,
2013-01-31 10:26:00,37.4,25.2,30.06,NW,315,4.1,9.5,61,0.00,,,0.00,WUHU216WMR968SP,2013-01-31 15:26:00,
2013-01-31 10:31:00,37.6,25.0,30.06,WNW,290,5.4,9.5,60,0.00,,,0.00,WUHU216WMR968SP,2013-01-31 15:31:00,
2013-01-31 10:36:00,37.6,24.6,30.09,WSW,240,8.7,13.0,59,0.00,,,0.00,WUHU216WMR968SP,2013-01-31 15:36:00,
2013-01-31 10:41:00,37.2,24.6,30.09,WSW,244,7.4,13.0,60,0.00,,,0.00,WUHU216WMR968SP,2013-01-31 15:41:00,
2013-01-31 10:46:00,37.4,24.8,30.09,West,276,6.0,12.5,60,0.00,,,0.00,WUHU216WMR968SP,2013-01-31 15:46:00,
2013-01-31 10:51:00,37.8,25.2,30.09,WSW,252,7.4,13.0,60,0.00,,,0.00,WUHU216WMR968SP,2013-01-31 15:51:00,
2013-01-31 10:56:00,37.8,25.2,30.09,West,272,8.7,15.8,60,0.00,,,0.00,WUHU216WMR968SP,2013-01-31 15:56:00,
2013-01-31 11:01:00,38.3,25.3,30.09,West,274,6.8,15.8,59,0.00,,,0.00,WUHU216WMR968SP,2013-01-31 16:01:00,
2013-01-31 11:06:00,40.3,27.2,30.09,WNW,286,8.1,13.0,59,0.00,,,0.00,WUHU216WMR968SP,2013-01-31 16:06:00,
2013-01-31 11:11:00,40.1,26.5,30.09,WSW,250,6.0,10.0,58,0.00,,,0.00,WUHU216WMR968SP,2013-01-31 16:11:00,
2013-01-31 11:16:00,39.7,25.7,30.09,West,277,6.8,11.4,57,0.00,,,0.00,WUHU216WMR968SP,2013-01-31 16:16:00,
2013-01-31 11:21:00,39.4,25.5,30.09,West,262,5.4,11.4,57,0.00,,,0.00,WUHU216WMR968SP,2013-01-31 16:21:00,
2013-01-31 11:26:00,40.1,26.1,30.09,NNW,330,6.0,12.2,57,0.00,,,0.00,WUHU216WMR968SP,2013-01-31 16:26:00,
2013-01-31 11:31:00,40.5,26.1,30.09,WSW,257,6.8,12.2,56,0.00,,,0.00,WUHU216WMR968SP,2013-01-31 16:31:00,
2013-01-31 11:36:00,39.4,24.6,30.09,WNW,296,5.4,14.4,55,0.00,,,0.00,WUHU216WMR968SP,2013-01-31 16:36:00,
2013-01-31 11:41:00,40.1,25.2,30.09,WNW,301,5.4,14.4,55,0.00,,,0.00,WUHU216WMR968SP,2013-01-31 16:41:00,
2013-01-31 11:46:00,40.3,25.4,30.09,SW,235,5.4,9.5,55,0.00,,,0.00,WUHU216WMR968SP,2013-01-31 16:46:00,
2013-01-31 11:51:00,40.6,25.7,30.09,West,279,5.4,13.0,55,0.00,,,0.00,WUHU216WMR968SP,2013-01-31 16:51:00,
2013-01-31 11:56:00,41.4,26.5,30.09,WNW,287,6.0,13.0,55,0.00,,,0.00,WUHU216WMR968SP,2013-01-31 16:56:00,
2013-01-31 12:01:00,41.9,26.5,30.09,WNW,290,4.6,12.2,54,0.00,,,0.00,WUHU216WMR968SP,2013-01-31 17:01:00,
2013-01-31 12:06:00,42.1,26.7,30.09,WNW,297,6.0,12.2,54,0.00,,,0.00,WUHU216WMR968SP,2013-01-31 17:06:00,
2013-01-31 12:11:00,42.4,26.9,30.09,WSW,240,6.0,12.2,54,0.00,,,0.00,WUHU216WMR968SP,2013-01-31 17:11:00,
2013-01-31 12:16:00,42.4,26.5,30.09,WNW,285,6.8,12.2,53,0.00,,,0.00,WUHU216WMR968SP,2013-01-31 17:16:00,
2013-01-31 12:21:00,42.8,26.8,30.09,NW,310,8.1,10.8,53,0.00,,,0.00,WUHU216WMR968SP,2013-01-31 17:21:00,
2013-01-31 12:26:00,43.0,26.6,30.09,West,280,4.6,12.2,52,0.00,,,0.00,WUHU216WMR968SP,2013-01-31 17:26:00,
2013-01-31 12:31:00,43.9,27.9,30.09,NW,305,5.4,12.2,53,0.00,,,0.00,WUHU216WMR968SP,2013-01-31 17:31:00,
2013-01-31 12:36:00,43.7,27.2,30.12,West,270,5.4,11.4,52,0.00,,,0.00,WUHU216WMR968SP,2013-01-31 17:36:00,
2013-01-31 12:41:00,43.5,27.0,30.12,WNW,294,8.1,11.4,52,0.00,,,0.00,WUHU216WMR968SP,2013-01-31 17:41:00,
2013-01-31 12:46:00,43.3,26.8,30.12,NW,307,6.8,12.5,52,0.00,,,0.00,WUHU216WMR968SP,2013-01-31 17:46:00,
2013-01-31 12:51:00,43.5,27.0,30.12,West,268,4.1,12.5,52,0.00,,,0.00,WUHU216WMR968SP,2013-01-31 17:51:00,
2013-01-31 12:56:00,43.2,26.3,30.12,West,261,6.8,12.5,51,0.00,,,0.00,WUHU216WMR968SP,2013-01-31 17:56:00,
2013-01-31 13:01:00,43.3,26.3,30.12,WSW,248,5.4,12.2,51,0.00,,,0.00,WUHU216WMR968SP,2013-01-31 18:01:00,
2013-01-31 13:07:00,42.8,25.9,30.12,West,267,8.7,13.0,51,0.00,,,0.00,WUHU216WMR968SP,2013-01-31 18:07:00,
2013-01-31 13:12:00,43.9,26.9,30.12,NW,305,4.6,13.0,51,0.00,,,0.00,WUHU216WMR968SP,2013-01-31 18:12:00,
2013-01-31 13:17:00,43.9,26.9,30.12,WNW,295,5.4,11.4,51,0.00,,,0.00,WUHU216WMR968SP,2013-01-31 18:17:00,
2013-01-31 13:22:00,43.9,26.4,30.09,West,263,7.4,11.4,50,0.00,,,0.00,WUHU216WMR968SP,2013-01-31 18:22:00,
2013-01-31 13:27:00,44.2,26.7,30.09,NW,310,4.6,11.4,50,0.00,,,0.00,WUHU216WMR968SP,2013-01-31 18:27:00,
2013-01-31 13:32:00,43.7,26.2,30.09,WNW,294,4.1,9.5,50,0.00,,,0.00,WUHU216WMR968SP,2013-01-31 18:32:00,
2013-01-31 13:37:00,43.9,26.4,30.09,NW,313,5.4,8.7,50,0.00,,,0.00,WUHU216WMR968SP,2013-01-31 18:37:00,
2013-01-31 13:42:00,45.0,27.4,30.09,WNW,299,8.1,12.5,50,0.00,,,0.00,WUHU216WMR968SP,2013-01-31 18:42:00,
2013-01-31 13:47:00,44.8,26.7,30.09,WNW,284,6.8,12.5,49,0.00,,,0.00,WUHU216WMR968SP,2013-01-31 18:47:00,
2013-01-31 13:52:00,45.1,27.0,30.09,WSW,239,6.0,11.4,49,0.00,,,0.00,WUHU216WMR968SP,2013-01-31 18:52:00,
2013-01-31 13:57:00,45.0,26.9,30.09,WNW,295,3.3,9.5,49,0.00,,,0.00,WUHU216WMR968SP,2013-01-31 18:57:00,
2013-01-31 14:02:00,45.7,27.6,30.09,SW,225,5.4,9.5,49,0.00,,,0.00,WUHU216WMR968SP,2013-01-31 19:02:00,
2013-01-31 14:07:00,44.8,26.2,30.06,SW,235,4.6,12.2,48,0.00,,,0.00,WUHU216WMR968SP,2013-01-31 19:07:00,
2013-01-31 14:12:00,44.6,26.0,30.06,WNW,294,6.8,12.2,48,0.00,,,0.00,WUHU216WMR968SP,2013-01-31 19:12:00,
2013-01-31 14:17:00,44.1,25.6,30.06,WNW,294,6.8,9.5,48,0.00,,,0.00,WUHU216WMR968SP,2013-01-31 19:17:00,
2013-01-31 14:22:00,44.6,26.0,30.06,WNW,299,5.4,9.5,48,0.00,,,0.00,WUHU216WMR968SP,2013-01-31 19:22:00,
2013-01-31 14:27:00,44.8,26.2,30.06,WSW,258,6.0,9.5,48,0.00,,,0.00,WUHU216WMR968SP,2013-01-31 19:27:00,
2013-01-31 14:32:00,45.5,26.9,30.06,SW,227,5.4,9.5,48,0.00,,,0.00,WUHU216WMR968SP,2013-01-31 19:32:00,
2013-01-31 14:37:00,45.3,26.7,30.09,WNW,298,5.4,8.7,48,0.00,,,0.00,WUHU216WMR968SP,2013-01-31 19:37:00,
2013-01-31 14:42:00,46.0,27.3,30.09,WSW,256,7.4,14.4,48,0.00,,,0.00,WUHU216WMR968SP,2013-01-31 19:42:00,
2013-01-31 14:47:00,45.5,26.9,30.09,WNW,296,5.4,14.4,48,0.00,,,0.00,WUHU216WMR968SP,2013-01-31 19:47:00,
2013-01-31 14:52:00,45.5,26.3,30.09,WSW,256,6.8,9.5,47,0.00,,,0.00,WUHU216WMR968SP,2013-01-31 19:52:00,
2013-01-31 14:57:00,45.3,26.2,30.09,West,278,4.6,9.5,47,0.00,,,0.00,WUHU216WMR968SP,2013-01-31 19:57:00,
2013-01-31 15:02:00,45.5,26.3,30.09,West,281,7.4,9.5,47,0.00,,,0.00,WUHU216WMR968SP,2013-01-31 20:02:00,
2013-01-31 15:07:00,45.1,26.0,30.06,NW,310,6.0,8.7,47,0.00,,,0.00,WUHU216WMR968SP,2013-01-31 20:07:00,
2013-01-31 15:12:00,45.0,25.9,30.06,NW,304,4.6,9.5,47,0.00,,,0.00,WUHU216WMR968SP,2013-01-31 20:12:00,
2013-01-31 15:17:00,45.3,26.2,30.06,West,281,4.1,9.5,47,0.00,,,0.00,WUHU216WMR968SP,2013-01-31 20:17:00,
2013-01-31 15:22:00,45.5,26.3,30.06,WNW,293,4.6,8.7,47,0.00,,,0.00,WUHU216WMR968SP,2013-01-31 20:22:00,
2013-01-31 15:27:00,45.7,26.5,30.06,WNW,296,6.0,9.5,47,0.00,,,0.00,WUHU216WMR968SP,2013-01-31 20:27:00,
2013-01-31 15:32:00,45.3,26.2,30.06,WNW,295,6.0,12.2,47,0.00,,,0.00,WUHU216WMR968SP,2013-01-31 20:32:00,
2013-01-31 15:37:00,45.3,26.2,30.06,WSW,243,7.4,12.2,47,0.00,,,0.00,WUHU216WMR968SP,2013-01-31 20:37:00,
2013-01-31 15:42:00,45.3,26.2,30.06,West,271,4.1,10.8,47,0.00,,,0.00,WUHU216WMR968SP,2013-01-31 20:42:00,
2013-01-31 15:47:00,45.5,26.3,30.06,WNW,293,4.1,8.7,47,0.00,,,0.00,WUHU216WMR968SP,2013-01-31 20:47:00,
2013-01-31 15:52:00,45.7,26.5,30.06,WNW,300,5.4,8.1,47,0.00,,,0.00,WUHU216WMR968SP,2013-01-31 20:52:00,
2013-01-31 15:57:00,45.5,25.8,30.06,West,271,5.4,9.5,46,0.00,,,0.00,WUHU216WMR968SP,2013-01-31 20:57:00,
2013-01-31 16:02:00,45.1,26.0,30.06,SW,227,5.4,9.5,47,0.00,,,0.00,WUHU216WMR968SP,2013-01-31 21:02:00,
2013-01-31 16:07:00,45.1,26.0,30.06,WSW,258,4.6,9.5,47,0.00,,,0.00,WUHU216WMR968SP,2013-01-31 21:07:00,
2013-01-31 16:12:00,45.5,26.3,30.06,NW,314,4.1,9.5,47,0.00,,,0.00,WUHU216WMR968SP,2013-01-31 21:12:00,
2013-01-31 16:17:00,45.5,26.3,30.06,WNW,291,5.4,9.5,47,0.00,,,0.00,WUHU216WMR968SP,2013-01-31 21:17:00,
2013-01-31 16:22:00,45.5,26.3,30.06,WSW,250,4.6,9.5,47,0.00,,,0.00,WUHU216WMR968SP,2013-01-31 21:22:00,
2013-01-31 16:27:00,45.3,26.2,30.06,NW,318,4.1,9.5,47,0.00,,,0.00,WUHU216WMR968SP,2013-01-31 21:27:00,
2013-01-31 16:32:00,45.0,25.9,30.06,SW,233,5.4,8.7,47,0.00,,,0.00,WUHU216WMR968SP,2013-01-31 21:32:00,
2013-01-31 16:37:00,45.0,25.9,30.06,West,279,5.4,8.7,47,0.00,,,0.00,WUHU216WMR968SP,2013-01-31 21:37:00,
2013-01-31 16:42:00,45.1,26.0,30.06,WNW,283,3.3,8.7,47,0.00,,,0.00,WUHU216WMR968SP,2013-01-31 21:42:00,
2013-01-31 16:47:00,45.1,26.5,30.06,WNW,293,0.0,8.7,48,0.00,,,0.00,WUHU216WMR968SP,2013-01-31 21:47:00,
2013-01-31 16:52:00,45.3,26.7,30.06,WNW,286,3.3,6.8,48,0.00,,,0.00,WUHU216WMR968SP,2013-01-31 21:52:00,
2013-01-31 16:57:00,45.1,26.5,30.06,WSW,244,5.4,8.7,48,0.00,,,0.00,WUHU216WMR968SP,2013-01-31 21:57:00,
2013-01-31 17:02:00,44.6,25.5,30.06,SW,234,4.6,14.4,47,0.00,,,0.00,WUHU216WMR968SP,2013-01-31 22:02:00,
2013-01-31 17:07:00,44.1,25.6,30.06,South,189,4.1,14.4,48,0.00,,,0.00,WUHU216WMR968SP,2013-01-31 22:07:00,
2013-01-31 17:12:00,44.1,25.6,30.06,NW,324,3.3,9.5,48,0.00,,,0.00,WUHU216WMR968SP,2013-01-31 22:12:00,
2013-01-31 17:17:00,44.2,25.7,30.06,WNW,292,3.3,8.1,48,0.00,,,0.00,WUHU216WMR968SP,2013-01-31 22:17:00,
2013-01-31 17:22:00,44.1,25.6,30.06,WSW,241,0.0,9.5,48,0.00,,,0.00,WUHU216WMR968SP,2013-01-31 22:22:00,
2013-01-31 17:27:00,43.9,25.4,30.06,NW,304,0.0,9.5,48,0.00,,,0.00,WUHU216WMR968SP,2013-01-31 22:27:00,
2013-01-31 17:32:00,43.7,25.2,30.06,SSW,212,4.6,8.1,48,0.00,,,0.00,WUHU216WMR968SP,2013-01-31 22:32:00,
2013-01-31 17:37:00,43.5,25.0,30.03,WSW,241,3.3,7.4,48,0.00,,,0.00,WUHU216WMR968SP,2013-01-31 22:37:00,
2013-01-31 17:42:00,43.5,25.0,30.03,WSW,249,6.0,8.7,48,0.00,,,0.00,WUHU216WMR968SP,2013-01-31 22:42:00,
2013-01-31 17:47:00,43.2,25.3,30.03,NNW,329,0.0,11.4,49,0.00,,,0.00,WUHU216WMR968SP,2013-01-31 22:47:00,
2013-01-31 17:52:00,43.2,25.3,30.03,SW,235,4.6,11.4,49,0.00,,,0.00,WUHU216WMR968SP,2013-01-31 22:52:00,
2013-01-31 17:57:00,43.0,25.1,30.03,West,279,7.4,8.7,49,0.00,,,0.00,WUHU216WMR968SP,2013-01-31 22:57:00,
2013-01-31 18:03:00,43.0,25.1,30.03,NNW,331,0.0,9.5,49,0.00,,,0.00,WUHU216WMR968SP,2013-01-31 23:03:00,
2013-01-31 18:10:00,43.0,25.1,30.03,WNW,286,4.6,9.5,49,0.00,,,0.00,WUHU216WMR968SP,2013-01-31 23:10:00,
2013-01-31 18:15:00,42.3,24.9,30.06,SW,219,0.0,8.7,50,0.00,,,0.00,WUHU216WMR968SP,2013-01-31 23:15:00,
2013-01-31 18:20:00,41.9,24.6,30.03,SSE,162,0.0,8.7,50,0.00,,,0.00,WUHU216WMR968SP,2013-01-31 23:20:00,
2013-01-31 18:25:00,41.5,24.2,30.03,South,186,0.0,4.1,50,0.00,,,0.00,WUHU216WMR968SP,2013-01-31 23:25:00,
2013-01-31 18:30:00,41.4,24.1,30.03,South,177,0.0,7.4,50,0.00,,,0.00,WUHU216WMR968SP,2013-01-31 23:30:00,
2013-01-31 18:35:00,41.0,23.7,30.06,SSE,163,3.3,9.5,50,0.00,,,0.00,WUHU216WMR968SP,2013-01-31 23:35:00,
2013-01-31 18:40:00,40.1,23.9,30.06,SSE,161,0.0,9.5,52,0.00,,,0.00,WUHU216WMR968SP,2013-01-31 23:40:00,
2013-01-31 18:45:00,39.4,23.2,30.06,SSE,161,0.0,4.6,52,0.00,,,0.00,WUHU216WMR968SP,2013-01-31 23:45:00,
2013-01-31 18:50:00,38.8,23.6,30.06,SSE,161,0.0,0.0,54,0.00,,,0.00,WUHU216WMR968SP,2013-01-31 23:50:00,
2013-01-31 18:55:00,38.5,23.3,30.06,SSE,163,0.0,5.4,54,0.00,,,0.00,WUHU216WMR968SP,2013-01-31 23:55:00,
2013-01-31 19:00:00,38.3,23.6,30.06,SW,223,0.0,5.4,55,0.00,,,0.00,WUHU216WMR968SP,2013-02-01 00:00:00,
2013-01-31 19:05:00,38.7,23.5,30.06,SW,223,0.0,8.7,54,0.00,,,0.00,WUHU216WMR968SP,2013-02-01 00:05:00,
2013-01-31 19:10:00,39.2,23.9,30.06,SW,219,0.0,8.7,54,0.00,,,0.00,WUHU216WMR968SP,2013-02-01 00:10:00,
2013-01-31 19:15:00,39.4,23.7,30.06,SSW,211,0.0,8.7,53,0.00,,,0.00,WUHU216WMR968SP,2013-02-01 00:15:00,
2013-01-31 19:20:00,39.2,23.5,30.06,SSW,211,0.0,4.1,53,0.00,,,0.00,WUHU216WMR968SP,2013-02-01 00:20:00,
2013-01-31 19:25:00,39.0,23.8,30.06,SSW,211,0.0,0.0,54,0.00,,,0.00,WUHU216WMR968SP,2013-02-01 00:25:00,
2013-01-31 19:30:00,38.8,23.6,30.06,SSW,211,0.0,0.0,54,0.00,,,0.00,WUHU216WMR968SP,2013-02-01 00:30:00,
2013-01-31 19:35:00,38.5,23.3,30.06,SSW,211,0.0,0.0,54,0.00,,,0.00,WUHU216WMR968SP,2013-02-01 00:35:00,
2013-01-31 19:40:00,38.1,23.4,30.06,SSW,211,0.0,0.0,55,0.00,,,0.00,WUHU216WMR968SP,2013-02-01 00:40:00,
2013-01-31 19:45:00,37.8,23.1,30.06,SSW,211,0.0,0.0,55,0.00,,,0.00,WUHU216WMR968SP,2013-02-01 00:45:00,
2013-01-31 19:50:00,37.4,23.1,30.06,WSW,241,0.0,0.0,56,0.00,,,0.00,WUHU216WMR968SP,2013-02-01 00:50:00,
2013-01-31 19:55:00,37.4,23.1,30.06,WSW,241,0.0,0.0,56,0.00,,,0.00,WUHU216WMR968SP,2013-02-01 00:55:00,
2013-01-31 20:00:00,37.2,23.4,30.06,South,179,0.0,4.6,57,0.00,,,0.00,WUHU216WMR968SP,2013-02-01 01:00:00,
2013-01-31 20:05:00,36.9,23.1,30.06,South,179,0.0,4.6,57,0.00,,,0.00,WUHU216WMR968SP,2013-02-01 01:05:00,
2013-01-31 20:10:00,36.9,23.5,30.06,SSE,163,0.0,0.0,58,0.00,,,0.00,WUHU216WMR968SP,2013-02-01 01:10:00,
2013-01-31 20:15:00,36.9,23.5,30.06,South,171,0.0,0.0,58,0.00,,,0.00,WUHU216WMR968SP,2013-02-01 01:15:00,
2013-01-31 20:20:00,37.0,23.6,30.06,SSW,193,0.0,4.1,58,0.00,,,0.00,WUHU216WMR968SP,2013-02-01 01:20:00,
2013-01-31 20:25:00,37.4,24.0,30.06,South,171,0.0,8.1,58,0.00,,,0.00,WUHU216WMR968SP,2013-02-01 01:25:00,
2013-01-31 20:30:00,37.6,24.2,30.06,SSW,196,0.0,8.1,58,0.00,,,0.00,WUHU216WMR968SP,2013-02-01 01:30:00,
2013-01-31 20:35:00,37.9,24.1,30.06,SSW,203,5.4,8.7,57,0.00,,,0.00,WUHU216WMR968SP,2013-02-01 01:35:00,
2013-01-31 20:40:00,39.0,24.7,30.06,SW,222,5.4,12.5,56,0.00,,,0.00,WUHU216WMR968SP,2013-02-01 01:40:00,
2013-01-31 20:45:00,39.9,25.1,30.06,West,274,4.6,12.5,55,0.00,,,0.00,WUHU216WMR968SP,2013-02-01 01:45:00,
2013-01-31 20:50:00,40.1,24.8,30.03,SSE,166,4.6,10.8,54,0.00,,,0.00,WUHU216WMR968SP,2013-02-01 01:50:00,
2013-01-31 20:55:00,39.9,24.6,30.03,South,169,4.1,10.8,54,0.00,,,0.00,WUHU216WMR968SP,2013-02-01 01:55:00,
2013-01-31 21:00:00,39.7,24.4,30.03,SE,140,4.6,9.5,54,0.00,,,0.00,WUHU216WMR968SP,2013-02-01 02:00:00,
2013-01-31 21:05:00,39.4,24.1,30.03,SSE,164,3.3,8.7,54,0.00,,,0.00,WUHU216WMR968SP,2013-02-01 02:05:00,
2013-01-31 21:10:00,39.0,23.8,30.03,SSW,211,4.1,9.5,54,0.00,,,0.00,WUHU216WMR968SP,2013-02-01 02:10:00,
2013-01-31 21:15:00,38.8,24.0,30.03,South,189,3.3,9.5,55,0.00,,,0.00,WUHU216WMR968SP,2013-02-01 02:15:00,
2013-01-31 21:20:00,38.8,24.0,30.03,SSW,200,5.4,8.1,55,0.00,,,0.00,WUHU216WMR968SP,2013-02-01 02:20:00,
2013-01-31 21:25:00,38.8,24.0,30.03,SSE,164,0.0,5.4,55,0.00,,,0.00,WUHU216WMR968SP,2013-02-01 02:25:00,
2013-01-31 21:30:00,38.8,24.0,30.03,SW,216,4.6,6.0,55,0.00,,,0.00,WUHU216WMR968SP,2013-02-01 02:30:00,
2013-01-31 21:35:00,39.2,24.4,30.03,SSW,197,5.4,11.4,55,0.00,,,0.00,WUHU216WMR968SP,2013-02-01 02:35:00,
2013-01-31 21:40:00,39.2,23.9,30.03,SSW,213,5.4,11.4,54,0.00,,,0.00,WUHU216WMR968SP,2013-02-01 02:40:00,
2013-01-31 21:45:00,39.0,24.2,30.03,SW,214,4.6,7.4,55,0.00,,,0.00,WUHU216WMR968SP,2013-02-01 02:45:00,
2013-01-31 21:50:00,39.0,24.2,30.03,SSW,210,0.0,9.5,55,0.00,,,0.00,WUHU216WMR968SP,2013-02-01 02:50:00,
2013-01-31 21:55:00,38.8,24.0,30.03,SW,220,4.1,9.5,55,0.00,,,0.00,WUHU216WMR968SP,2013-02-01 02:55:00,
2013-01-31 22:00:00,38.8,24.0,30.03,SSW,208,4.6,11.4,55,0.00,,,0.00,WUHU216WMR968SP,2013-02-01 03:00:00,
2013-01-31 22:05:00,38.7,23.9,30.03,SW,221,4.6,11.4,55,0.00,,,0.00,WUHU216WMR968SP,2013-02-01 03:05:00,
2013-01-31 22:10:00,38.5,24.2,30.03,SSW,197,4.6,8.1,56,0.00,,,0.00,WUHU216WMR968SP,2013-02-01 03:10:00,
2013-01-31 22:15:00,38.5,24.2,30.03,SW,229,6.8,9.5,56,0.00,,,0.00,WUHU216WMR968SP,2013-02-01 03:15:00,
2013-01-31 22:20:00,38.7,24.4,30.03,SSW,195,3.3,9.5,56,0.00,,,0.00,WUHU216WMR968SP,2013-02-01 03:20:00,
2013-01-31 22:25:00,38.8,24.5,30.03,West,263,4.1,7.4,56,0.00,,,0.00,WUHU216WMR968SP,2013-02-01 03:25:00,
2013-01-31 22:30:00,38.8,24.5,30.03,SW,217,4.1,9.5,56,0.00,,,0.00,WUHU216WMR968SP,2013-02-01 03:30:00,
2013-01-31 22:35:00,38.8,24.5,30.03,SSW,202,4.1,9.5,56,0.00,,,0.00,WUHU216WMR968SP,2013-02-01 03:35:00,
2013-01-31 22:40:00,39.0,24.7,30.03,SSW,195,6.0,12.2,56,0.00,,,0.00,WUHU216WMR968SP,2013-02-01 03:40:00,
2013-01-31 22:45:00,39.2,24.4,30.03,SW,222,4.1,12.2,55,0.00,,,0.00,WUHU216WMR968SP,2013-02-01 03:45:00,
2013-01-31 22:50:00,39.4,24.6,30.03,SSW,195,4.1,8.1,55,0.00,,,0.00,WUHU216WMR968SP,2013-02-01 03:50:00,
2013-01-31 22:55:00,39.2,24.4,30.03,South,176,4.1,8.1,55,0.00,,,0.00,WUHU216WMR968SP,2013-02-01 03:55:00,
2013-01-31 23:00:00,39.6,24.8,30.03,South,179,7.4,9.5,55,0.00,,,0.00,WUHU216WMR968SP,2013-02-01 04:00:00,
2013-01-31 23:05:00,39.6,24.8,30.03,SW,216,4.6,9.5,55,0.00,,,0.00,WUHU216WMR968SP,2013-02-01 04:05:00,
2013-01-31 23:10:00,39.4,24.6,30.03,SW,220,4.6,8.1,55,0.00,,,0.00,WUHU216WMR968SP,2013-02-01 04:10:00,
2013-01-31 23:15:00,39.6,24.8,30.03,West,259,6.8,9.5,55,0.00,,,0.00,WUHU216WMR968SP,2013-02-01 04:15:00,
2013-01-31 23:20:00,40.1,25.2,30.03,SW,227,4.6,9.5,55,0.00,,,0.00,WUHU216WMR968SP,2013-02-01 04:20:00,
2013-01-31 23:25:00,40.3,25.4,30.03,SW,221,4.1,8.7,55,0.00,,,0.00,WUHU216WMR968SP,2013-02-01 04:25:00,
2013-01-31 23:30:00,40.5,25.6,30.03,SSW,198,4.6,12.5,55,0.00,,,0.00,WUHU216WMR968SP,2013-02-01 04:30:00,
2013-01-31 23:35:00,40.6,25.7,30.03,SSW,212,6.0,12.5,55,0.00,,,0.00,WUHU216WMR968SP,2013-02-01 04:35:00,
2013-01-31 23:40:00,40.6,25.7,30.03,SSW,192,4.6,11.4,55,0.00,,,0.00,WUHU216WMR968SP,2013-02-01 04:40:00,
2013-01-31 23:45:00,40.8,25.9,30.03,SW,222,6.0,11.4,55,0.00,,,0.00,WUHU216WMR968SP,2013-02-01 04:45:00,
2013-01-31 23:50:00,40.8,25.9,30.03,WSW,237,3.3,11.4,55,0.00,,,0.00,WUHU216WMR968SP,2013-02-01 04:50:00,
2013-01-31 23:55:00,41.0,25.6,30.03,South,171,6.0,12.5,54,0.00,,,0.00,WUHU216WMR968SP,2013-02-01 04:55:00,